Atmospheric History
12/06/2017 18:37  to  12/7/2017 18:37
Change End Date:
To complete the export process:
1) Select all of the data below
2) Copy the data to the clipboard
3) Open a word processor such as Notepad
4) Paste the data into the word processor
5) Save the file

Date/Time (MST), AirTemp, RH, Dewpoint ,AvgWindSpeed, GustWindSpeed, WindDirection, PrecipType, PrecipIntensity, PrecipAccumulation, PrecipRate ,Visibility
12/07/2017 18:35, 26, 57, 12 ,20, 24, NW, None, None, 0, 0 ,6560
12/07/2017 18:29, 26, 57, 12 ,19, 26, NW, None, None, 0, 0 ,6560
12/07/2017 18:25, 27, 55, 13 ,20, 26, NW, None, None, 0, 0 ,6560
12/07/2017 18:15, 26, 55, 12 ,18, 25, NW, None, None, 0, 0 ,6560
12/07/2017 18:14, 27, 55, 13 ,20, 25, NW, None, None, 0, 0 ,6560
12/07/2017 18:04, 26, 55, 13 ,20, 24, NW, None, None, 0, 0 ,6560
12/07/2017 17:59, 27, 54, 13 ,19, 25, NW, None, None, 0, 0 ,6560
12/07/2017 17:54, 28, 53, 13 ,21, 25, NW, None, None, 0, 0 ,6560
12/07/2017 17:44, 28, 53, 13 ,19, 27, NW, None, None, 0.01, 0 ,6560
12/07/2017 17:43, 28, 53, 13 ,19, 27, NW, None, None, 0.01, 0 ,6560
12/07/2017 17:34, 27, 54, 13 ,17, 26, NW, None, None, 0.01, 0 ,6560
12/07/2017 17:28, 28, 54, 13 ,18, 26, NW, None, None, 0.01, 0 ,6560
12/07/2017 17:24, 27, 54, 13 ,19, 24, NW, None, None, 0.01, 0 ,6560
12/07/2017 17:14, 28, 54, 13 ,21, 27, NW, None, None, 0.02, 0 ,6560
12/07/2017 17:13, 27, 54, 13 ,20, 25, NW, None, None, 0.02, 0 ,6560
12/07/2017 17:04, 27, 56, 13 ,17, 26, NW, None, None, 0.02, 0 ,6560
12/07/2017 16:58, 27, 56, 13 ,19, 26, NW, None, None, 0.02, 0 ,6560
12/07/2017 16:54, 27, 56, 13 ,21, 25, NW, None, None, 0.02, 0 ,6560
12/07/2017 16:44, 27, 56, 13 ,17, 24, NW, None, None, 0.03, 0 ,6560
12/07/2017 16:43, 27, 56, 13 ,17, 24, NW, None, None, 0.03, 0 ,6560
12/07/2017 16:34, 28, 55, 14 ,17, 24, NW, None, None, 0.03, 0 ,6560
12/07/2017 16:29, 27, 55, 14 ,15, 24, NW, None, None, 0.03, 0 ,6560
12/07/2017 16:24, 28, 55, 14 ,19, 24, NW, None, None, 0.03, 0 ,6560
12/07/2017 16:14, 28, 54, 14 ,18, 26, NW, None, None, 0.03, 0 ,6560
12/07/2017 16:13, 28, 54, 14 ,18, 26, NW, None, None, 0.03, 0 ,6560
12/07/2017 16:04, 28, 53, 14 ,19, 25, NW, None, None, 0.03, 0 ,6560
12/07/2017 15:58, 28, 54, 14 ,19, 25, NW, None, None, 0.03, 0 ,6560
12/07/2017 15:54, 29, 53, 14 ,18, 23, NW, None, None, 0.03, 0 ,6560
12/07/2017 15:44, 30, 51, 14 ,17, 25, NW, None, None, 0.03, 0 ,6560
12/07/2017 15:43, 30, 51, 14 ,17, 25, NW, None, None, 0.03, 0 ,6560
12/07/2017 15:34, 30, 51, 14 ,18, 29, NW, None, None, 0.03, 0 ,6560
12/07/2017 15:29, 30, 51, 14 ,21, 32, NW, None, None, 0.03, 0 ,6560
12/07/2017 15:23, 31, 49, 14 ,19, 32, NW, None, None, 0.03, 0 ,6560
12/07/2017 15:14, 30, 51, 14 ,16, 29, NW, None, None, 0.03, 0 ,6560
12/07/2017 15:13, 30, 51, 14 ,16, 29, NW, None, None, 0.03, 0 ,6560
12/07/2017 15:03, 30, 52, 15 ,18, 24, NW, None, None, 0.03, 0 ,6560
12/07/2017 14:59, 30, 51, 15 ,17, 24, NW, None, None, 0.03, 0 ,6560
12/07/2017 14:53, 30, 51, 14 ,16, 25, NW, None, None, 0.03, 0 ,6560
12/07/2017 14:44, 31, 49, 14 ,18, 25, NW, None, None, 0.03, 0 ,6560
12/07/2017 14:43, 31, 49, 14 ,18, 25, NW, None, None, 0.03, 0 ,6560
12/07/2017 14:33, 30, 51, 15 ,16, 25, NW, None, None, 0.03, 0 ,6560
12/07/2017 14:29, 30, 51, 15 ,16, 24, NW, None, None, 0.03, 0 ,6560
12/07/2017 14:23, 30, 51, 15 ,17, 24, NW, None, None, 0.03, 0 ,6560
12/07/2017 14:13, 30, 52, 15 ,19, 24, NW, None, None, 0.03, 0 ,6560
12/07/2017 14:13, 30, 52, 15 ,19, 24, NW, None, None, 0.03, 0 ,6560
12/07/2017 14:03, 29, 53, 15 ,18, 24, NW, None, None, 0.03, 0 ,6560
12/07/2017 13:58, 30, 52, 14 ,17, 24, NW, None, None, 0.03, 0 ,6560
12/07/2017 13:53, 30, 52, 14 ,17, 24, NW, None, None, 0.03, 0 ,6560
12/07/2017 13:44, 30, 50, 14 ,19, 27, NW, None, None, 0.03, 0 ,6560
12/07/2017 13:43, 30, 50, 14 ,21, 27, NW, None, None, 0.03, 0 ,6560
12/07/2017 13:33, 29, 52, 14 ,17, 27, NW, None, None, 0.03, 0 ,6560
12/07/2017 13:28, 29, 52, 14 ,20, 27, NW, None, None, 0.03, 0 ,6560
12/07/2017 13:23, 30, 52, 14 ,21, 25, NW, None, None, 0.03, 0 ,6560
12/07/2017 13:14, 30, 51, 14 ,17, 26, NW, None, None, 0.03, 0 ,6560
12/07/2017 13:13, 29, 52, 14 ,17, 26, NW, None, None, 0.03, 0 ,6560
12/07/2017 13:03, 29, 53, 14 ,18, 26, NW, None, None, 0.03, 0 ,6560
12/07/2017 12:59, 29, 52, 14 ,19, 26, NW, None, None, 0.03, 0 ,6560
12/07/2017 12:53, 30, 51, 14 ,17, 23, NW, None, None, 0.03, 0 ,6560
12/07/2017 12:44, 30, 51, 14 ,17, 23, NW, None, None, 0.03, 0 ,6560
12/07/2017 12:43, 29, 51, 14 ,16, 23, NW, None, None, 0.03, 0 ,6560
12/07/2017 12:32, 29, 53, 14 ,15, 22, NW, None, None, 0.03, 0 ,6560
12/07/2017 12:29, 29, 53, 14 ,14, 22, NW, None, None, 0.03, 0 ,6560
12/07/2017 12:22, 28, 54, 14 ,14, 21, NW, None, None, 0.03, 0 ,6560
12/07/2017 12:13, 28, 54, 13 ,16, 21, NW, None, None, 0.03, 0 ,6560
12/07/2017 12:12, 28, 54, 13 ,15, 21, NW, None, None, 0.03, 0 ,6560
12/07/2017 12:02, 28, 53, 13 ,16, 23, NW, None, None, 0.03, 0 ,6560
12/07/2017 11:58, 28, 53, 13 ,16, 21, NW, None, None, 0.03, 0 ,6560
12/07/2017 11:52, 28, 52, 13 ,14, 21, NW, None, None, 0.03, 0 ,6560
12/07/2017 11:44, 28, 54, 13 ,15, 21, NW, None, None, 0.03, 0 ,6560
12/07/2017 11:42, 28, 53, 13 ,15, 21, NW, None, None, 0.03, 0 ,6560
12/07/2017 11:32, 28, 54, 13 ,17, 24, NW, None, None, 0.03, 0 ,6560
12/07/2017 11:29, 28, 55, 13 ,15, 23, NW, None, None, 0.03, 0 ,6560
12/07/2017 11:22, 27, 57, 14 ,16, 23, NW, None, None, 0.03, 0 ,6560
12/07/2017 11:13, 26, 58, 13 ,16, 24, NW, None, None, 0.03, 0 ,6560
12/07/2017 11:12, 26, 58, 13 ,15, 24, NW, None, None, 0.03, 0 ,6560
12/07/2017 11:02, 26, 58, 13 ,16, 21, NW, None, None, 0.03, 0 ,6560
12/07/2017 10:59, 26, 59, 14 ,16, 20, NW, None, None, 0.03, 0 ,6560
12/07/2017 10:52, 25, 60, 13 ,16, 22, NW, None, None, 0.03, 0 ,6560
12/07/2017 10:44, 25, 59, 13 ,16, 21, NW, None, None, 0.03, 0 ,6560
12/07/2017 10:42, 25, 59, 13 ,15, 21, NW, None, None, 0.03, 0 ,6560
12/07/2017 10:32, 24, 61, 13 ,13, 19, NW, None, None, 0.03, 0 ,6560
12/07/2017 10:29, 24, 61, 12 ,12, 20, NW, None, None, 0.03, 0 ,6560
12/07/2017 10:22, 23, 63, 12 ,16, 20, NW, None, None, 0.03, 0 ,6560
12/07/2017 10:14, 22, 64, 12 ,15, 21, NW, None, None, 0.03, 0 ,6560
12/07/2017 10:12, 22, 63, 12 ,14, 21, NW, None, None, 0.03, 0 ,6560
12/07/2017 10:02, 23, 62, 12 ,14, 21, NW, None, None, 0.03, 0 ,6560
12/07/2017 09:59, 22, 62, 12 ,14, 21, NW, None, None, 0.03, 0 ,6560
12/07/2017 09:52, 22, 63, 12 ,16, 22, NW, None, None, 0.03, 0 ,6560
12/07/2017 09:44, 21, 64, 11 ,17, 21, NW, None, None, 0.03, 0 ,6560
12/07/2017 09:42, 21, 65, 11 ,17, 21, NW, None, None, 0.03, 0 ,6560
12/07/2017 09:31, 21, 65, 11 ,16, 22, NW, None, None, 0.03, 0 ,6560
12/07/2017 09:29, 21, 65, 11 ,15, 22, NW, None, None, 0.03, 0 ,6560
12/07/2017 09:21, 20, 67, 11 ,15, 22, NW, None, None, 0.03, 0 ,6560
12/07/2017 09:14, 20, 68, 11 ,14, 23, NW, None, None, 0.03, 0 ,6560
12/07/2017 09:11, 19, 69, 11 ,16, 25, NW, None, None, 0.03, 0 ,6560
12/07/2017 09:01, 19, 70, 11 ,15, 23, NW, None, None, 0.03, 0 ,6560
12/07/2017 08:58, 19, 71, 11 ,17, 23, NW, None, None, 0.03, 0 ,6560
12/07/2017 08:51, 17, 74, 10 ,17, 24, NW, None, None, 0.03, 0 ,6560
12/07/2017 08:43, 17, 74, 10 ,15, 22, NW, None, None, 0.03, 0 ,6560
12/07/2017 08:41, 17, 74, 10 ,16, 22, NW, None, None, 0.03, 0 ,6560
12/07/2017 08:31, 17, 74, 10 ,17, 23, NW, None, None, 0.03, 0 ,6560
12/07/2017 08:28, 17, 74, 10 ,20, 23, NW, None, None, 0.03, 0 ,6560
12/07/2017 08:21, 17, 73, 10 ,17, 24, NW, None, None, 0.03, 0 ,6560
12/07/2017 08:13, 17, 74, 10 ,17, 22, NW, None, None, 0.03, 0 ,6560
12/07/2017 08:11, 17, 74, 10 ,16, 23, NW, None, None, 0.03, 0 ,6560
12/07/2017 08:01, 17, 74, 10 ,18, 22, NW, None, None, 0.03, 0 ,6560
12/07/2017 07:59, 17, 73, 10 ,17, 22, NW, None, None, 0.03, 0 ,6560
12/07/2017 07:51, 18, 72, 10 ,16, 21, NW, None, None, 0.03, 0 ,6560
12/07/2017 07:44, 18, 71, 10 ,13, 18, NW, None, None, 0.03, 0 ,6560
12/07/2017 07:41, 18, 71, 10 ,15, 18, NW, None, None, 0.03, 0 ,6560
12/07/2017 07:31, 19, 70, 10 ,15, 21, NW, None, None, 0.03, 0 ,6560
12/07/2017 07:28, 19, 70, 11 ,14, 20, NW, None, None, 0.03, 0 ,6560
12/07/2017 07:21, 19, 70, 11 ,15, 19, NW, None, None, 0.03, 0 ,6560
12/07/2017 07:13, 19, 69, 10 ,13, 18, NW, None, None, 0.03, 0 ,6560
12/07/2017 07:11, 19, 69, 11 ,14, 18, NW, None, None, 0.03, 0 ,6560
12/07/2017 07:01, 19, 71, 11 ,14, 19, NW, None, None, 0.03, 0 ,6560
12/07/2017 06:58, 18, 72, 11 ,16, 19, NW, None, None, 0.03, 0 ,6560
12/07/2017 06:51, 18, 73, 11 ,14, 18, NW, None, None, 0.03, 0 ,6560
12/07/2017 06:43, 18, 71, 10 ,14, 21, NW, None, None, 0.03, 0 ,6560
12/07/2017 06:41, 18, 70, 10 ,15, 21, NW, None, None, 0.03, 0 ,6560
12/07/2017 06:31, 19, 69, 10 ,16, 22, NW, None, None, 0.03, 0 ,6560
12/07/2017 06:28, 19, 68, 10 ,13, 22, NW, None, None, 0.03, 0 ,6560
12/07/2017 06:20, 20, 65, 10 ,16, 22, NW, None, None, 0.03, 0 ,6560
12/07/2017 06:13, 21, 64, 11 ,16, 24, NW, None, None, 0.03, 0 ,6560
12/07/2017 06:10, 21, 65, 11 ,17, 24, NW, None, None, 0.03, 0 ,6560
12/07/2017 06:00, 20, 66, 11 ,19, 25, NW, None, None, 0.03, 0 ,6560
12/07/2017 05:58, 20, 66, 11 ,17, 25, NW, None, None, 0.03, 0 ,6560
12/07/2017 05:50, 20, 66, 11 ,17, 23, NW, None, None, 0.03, 0 ,6560
12/07/2017 05:44, 20, 67, 11 ,17, 25, NW, None, None, 0.03, 0 ,6560
12/07/2017 05:40, 20, 66, 11 ,16, 25, NW, None, None, 0.03, 0 ,6560
12/07/2017 05:30, 20, 66, 11 ,15, 24, NW, None, None, 0.03, 0 ,6560
12/07/2017 05:29, 20, 66, 11 ,17, 24, NW, None, None, 0.03, 0 ,6560
12/07/2017 05:20, 19, 68, 11 ,16, 24, NW, None, None, 0.03, 0 ,6560
12/07/2017 05:13, 19, 68, 11 ,18, 24, NW, None, None, 0.03, 0 ,6560
12/07/2017 05:10, 20, 67, 11 ,17, 26, NW, None, None, 0.03, 0 ,6560
12/07/2017 05:00, 19, 68, 11 ,19, 26, NW, None, None, 0.03, 0 ,6560
12/07/2017 04:58, 20, 68, 11 ,18, 24, NW, None, None, 0.03, 0 ,6560
12/07/2017 04:50, 19, 68, 11 ,20, 24, NW, None, None, 0.03, 0 ,6560
12/07/2017 04:43, 20, 67, 11 ,20, 26, NW, None, None, 0.03, 0 ,6560
12/07/2017 04:40, 19, 69, 11 ,22, 26, NW, None, None, 0.03, 0 ,6560
12/07/2017 04:30, 20, 68, 11 ,21, 28, NW, None, None, 0.03, 0 ,6560
12/07/2017 04:28, 19, 70, 11 ,22, 28, NW, None, None, 0.03, 0 ,6560
12/07/2017 04:20, 18, 72, 11 ,21, 28, NW, None, None, 0.03, 0 ,6560
12/07/2017 04:13, 19, 71, 11 ,21, 27, NW, None, None, 0.03, 0 ,6560
12/07/2017 04:10, 18, 72, 11 ,20, 27, NW, None, None, 0.03, 0 ,6560
12/07/2017 04:00, 19, 71, 11 ,19, 27, NW, None, None, 0.03, 0 ,6560
12/07/2017 03:58, 19, 71, 11 ,21, 27, NW, None, None, 0.03, 0 ,6560
12/07/2017 03:49, 19, 69, 11 ,21, 27, NW, None, None, 0.03, 0 ,6560
12/07/2017 03:43, 20, 69, 11 ,19, 25, NW, None, None, 0.03, 0 ,6560
12/07/2017 03:39, 19, 69, 11 ,19, 25, NW, None, None, 0.03, 0 ,6560
12/07/2017 03:29, 19, 70, 11 ,21, 27, NW, None, None, 0.03, 0 ,6560
12/07/2017 03:28, 19, 70, 11 ,21, 27, NW, None, None, 0.03, 0 ,6560
12/07/2017 03:19, 19, 71, 11 ,21, 29, NW, None, None, 0.03, 0 ,6560
12/07/2017 03:13, 19, 71, 11 ,21, 28, NW, None, None, 0.03, 0 ,6560
12/07/2017 03:09, 19, 71, 11 ,21, 27, NW, None, None, 0.03, 0 ,6560
12/07/2017 02:59, 19, 71, 11 ,19, 26, NW, None, None, 0.03, 0 ,6560
12/07/2017 02:58, 19, 71, 11 ,21, 26, NW, None, None, 0.03, 0 ,6560
12/07/2017 02:49, 19, 71, 11 ,22, 27, NW, None, None, 0.03, 0 ,6560
12/07/2017 02:43, 19, 71, 11 ,20, 26, NW, None, None, 0.03, 0 ,6560
12/07/2017 02:39, 19, 71, 11 ,21, 25, NW, None, None, 0.03, 0 ,6560
12/07/2017 02:29, 19, 71, 11 ,21, 26, NW, None, None, 0.03, 0 ,6560
12/07/2017 02:28, 19, 71, 11 ,20, 26, NW, None, None, 0.03, 0 ,6560
12/07/2017 02:19, 19, 72, 11 ,21, 25, NW, None, None, 0.03, 0 ,6560
12/07/2017 02:13, 19, 71, 11 ,19, 24, NW, None, None, 0.03, 0 ,6560
12/07/2017 02:09, 19, 71, 11 ,18, 24, NW, None, None, 0.03, 0 ,6560
12/07/2017 01:59, 19, 71, 11 ,16, 24, NW, None, None, 0.03, 0 ,6560
12/07/2017 01:58, 19, 71, 11 ,16, 24, NW, None, None, 0.03, 0 ,6560
12/07/2017 01:49, 19, 72, 12 ,17, 22, NW, None, None, 0.03, 0 ,6560
12/07/2017 01:44, 19, 73, 11 ,17, 22, NW, None, None, 0.03, 0 ,6560
12/07/2017 01:39, 19, 73, 11 ,16, 24, NW, None, None, 0.03, 0 ,6560
12/07/2017 01:29, 18, 74, 11 ,18, 22, NW, None, None, 0.03, 0 ,6560
12/07/2017 01:28, 18, 74, 11 ,19, 22, NW, None, None, 0.03, 0 ,6560
12/07/2017 01:19, 18, 75, 11 ,16, 23, NW, None, None, 0.03, 0 ,6560
12/07/2017 01:14, 18, 75, 11 ,17, 22, NW, None, None, 0.03, 0 ,6560
12/07/2017 01:09, 18, 74, 11 ,16, 22, NW, None, None, 0.03, 0 ,6560
12/07/2017 00:59, 17, 76, 11 ,19, 22, NW, None, None, 0.03, 0 ,6560
12/07/2017 00:58, 17, 76, 11 ,19, 22, NW, None, None, 0.03, 0 ,6560
12/07/2017 00:48, 17, 76, 11 ,18, 25, NW, None, None, 0.03, 0 ,6560
12/07/2017 00:44, 17, 76, 11 ,17, 23, NW, None, None, 0.03, 0 ,6560
12/07/2017 00:38, 17, 76, 11 ,18, 22, NW, None, None, 0.03, 0 ,6560
12/07/2017 00:29, 17, 75, 11 ,17, 22, NW, None, None, 0.03, 0 ,6560
12/07/2017 00:28, 17, 75, 11 ,17, 22, NW, None, None, 0.03, 0 ,6560
12/07/2017 00:18, 17, 76, 11 ,17, 22, NW, None, None, 0.03, 0 ,6560
12/07/2017 00:14, 17, 76, 11 ,16, 22, NW, None, None, 0.03, 0 ,6560
12/07/2017 00:08, 17, 75, 11 ,16, 24, NW, None, None, 0.03, 0 ,6560
12/06/2017 23:59, 17, 75, 11 ,16, 22, NW, None, None, 0.03, 0 ,6560
12/06/2017 23:58, 17, 75, 11 ,16, 22, NW, None, None, 0.03, 0 ,6560
12/06/2017 23:48, 17, 75, 11 ,16, 22, NW, None, None, 0.03, 0 ,6560
12/06/2017 23:44, 18, 75, 11 ,16, 21, NW, None, None, 0.03, 0 ,6560
12/06/2017 23:38, 18, 75, 11 ,16, 21, NW, None, None, 0.03, 0 ,6560
12/06/2017 23:29, 18, 74, 11 ,16, 21, NW, None, None, 0.03, 0 ,6560
12/06/2017 23:28, 18, 74, 11 ,15, 21, NW, None, None, 0.03, 0 ,6560
12/06/2017 23:18, 18, 75, 11 ,15, 21, NW, None, None, 0.03, 0 ,6560
12/06/2017 23:14, 18, 74, 11 ,13, 21, NW, None, None, 0.03, 0 ,6560
12/06/2017 23:08, 19, 74, 11 ,14, 19, NW, None, None, 0.03, 0 ,6560
12/06/2017 22:59, 19, 73, 12 ,15, 19, NW, None, None, 0.03, 0 ,6560
12/06/2017 22:58, 19, 73, 12 ,14, 19, NW, None, None, 0.03, 0 ,6560
12/06/2017 22:48, 19, 73, 12 ,14, 19, NW, None, None, 0.03, 0 ,6560
12/06/2017 22:44, 19, 73, 12 ,12, 18, NW, None, None, 0.03, 0 ,6560
12/06/2017 22:38, 18, 74, 11 ,13, 18, NW, None, None, 0.03, 0 ,6560
12/06/2017 22:29, 19, 74, 12 ,14, 20, NW, None, None, 0.03, 0 ,6560
12/06/2017 22:28, 18, 74, 11 ,15, 20, NW, None, None, 0.03, 0 ,6560
12/06/2017 22:17, 18, 74, 11 ,16, 21, NW, None, None, 0.03, 0 ,6560
12/06/2017 22:14, 18, 74, 12 ,14, 21, NW, None, None, 0.03, 0 ,6560
12/06/2017 22:07, 19, 74, 11 ,15, 22, NW, None, None, 0.03, 0 ,6560
12/06/2017 21:59, 19, 73, 11 ,16, 20, NW, None, None, 0.03, 0 ,6560
12/06/2017 21:57, 19, 74, 12 ,16, 20, NW, None, None, 0.03, 0 ,6560
12/06/2017 21:47, 19, 73, 12 ,14, 21, NW, None, None, 0.03, 0 ,6560
12/06/2017 21:44, 19, 74, 12 ,16, 20, NW, None, None, 0.03, 0 ,6560
12/06/2017 21:37, 19, 74, 12 ,14, 20, NW, None, None, 0.03, 0 ,6560
12/06/2017 21:29, 19, 74, 12 ,14, 21, NW, None, None, 0.03, 0 ,6560
12/06/2017 21:27, 18, 74, 12 ,14, 21, NW, None, None, 0.03, 0 ,6560
12/06/2017 21:17, 18, 76, 12 ,16, 21, NW, None, None, 0.03, 0 ,6560
12/06/2017 21:14, 18, 75, 11 ,16, 21, NW, None, None, 0.03, 0 ,6560
12/06/2017 21:07, 18, 75, 11 ,16, 21, NW, None, None, 0.03, 0 ,6560
12/06/2017 20:58, 18, 75, 11 ,16, 21, NW, None, None, 0.03, 0 ,6560
12/06/2017 20:57, 18, 74, 11 ,14, 21, NW, None, None, 0.03, 0 ,6560
12/06/2017 20:47, 18, 75, 11 ,16, 21, NW, None, None, 0.03, 0 ,6560
12/06/2017 20:44, 18, 75, 11 ,15, 21, NW, None, None, 0.03, 0 ,6560
12/06/2017 20:37, 17, 76, 11 ,15, 21, NW, None, None, 0.03, 0 ,6560
12/06/2017 20:29, 17, 75, 11 ,16, 20, NW, None, None, 0.03, 0 ,6560
12/06/2017 20:27, 17, 75, 11 ,14, 16, NW, None, None, 0.03, 0 ,6560
12/06/2017 20:17, 18, 75, 11 ,15, 20, NW, None, None, 0.03, 0 ,6560
12/06/2017 20:14, 17, 75, 11 ,15, 20, NW, None, None, 0.03, 0 ,6560
12/06/2017 20:07, 17, 76, 11 ,16, 21, NW, None, None, 0.03, 0 ,6560
12/06/2017 19:59, 17, 76, 11 ,11, 17, NW, None, None, 0.03, 0 ,6560
12/06/2017 19:57, 17, 76, 11 ,12, 17, NW, None, None, 0.03, 0 ,6560
12/06/2017 19:47, 17, 77, 11 ,13, 21, NW, None, None, 0.03, 0 ,6560
12/06/2017 19:44, 17, 78, 11 ,12, 21, NW, None, None, 0.03, 0 ,6560
12/06/2017 19:37, 17, 77, 11 ,13, 20, NW, None, None, 0.03, 0 ,6560
12/06/2017 19:28, 17, 77, 11 ,14, 22, NW, None, None, 0.03, 0 ,6560
12/06/2017 19:27, 17, 77, 11 ,16, 22, NW, None, None, 0.03, 0 ,6560
12/06/2017 19:16, 17, 76, 11 ,18, 24, NW, None, None, 0.03, 0 ,6560
12/06/2017 19:14, 17, 76, 11 ,16, 24, NW, None, None, 0.03, 0 ,6560
12/06/2017 19:06, 17, 77, 11 ,17, 23, NW, None, None, 0.03, 0 ,6560
12/06/2017 18:59, 17, 77, 11 ,19, 24, NW, None, None, 0.03, 0 ,6560
12/06/2017 18:56, 17, 77, 11 ,18, 24, NW, None, None, 0.03, 0 ,6560
12/06/2017 18:46, 17, 77, 11 ,16, 22, NW, None, None, 0.03, 0 ,6560
12/06/2017 18:44, 17, 76, 11 ,19, 22, NW, None, None, 0.03, 0 ,6560
Change End Date:

Copyright © 1998-2015 Vaisala, Inc.
All Rights Reserved
Send comments about the data to:
SCAN Web ® is a registered trademark of Vaisala, Inc.
SCAN Web Version 6.0